KE5YIM-13 Weather Reports


time (UTC)temp
F
wind
direction
speed
knots
gust
knots
rain 1hr
in
rain 24hr
in
rain mn
in
humidity
%
barometer
mb
20260504175536 68 275 4.3 8.7 0.00 0.00 0.00 38 1011.5
20260504175033 67 213 4.3 7.0 0.00 0.00 0.00 37 1011.7
20260504174531 67 215 4.3 12.2 0.00 0.00 0.00 38 1011.8
20260504174028 68 244 7.0 9.6 0.00 0.00 0.00 37 1011.8
20260504173525 67 313 4.3 6.1 0.00 0.00 0.00 40 1011.8
20260504173022 68 271 9.6 17.4 0.00 0.00 0.00 37 1011.8
20260504172518 67 256 7.0 9.6 0.00 0.00 0.00 38 1011.8
20260504172015 67 163 3.5 9.6 0.00 0.00 0.00 38 1011.7
20260504171512 67 212 6.1 12.2 0.00 0.00 0.00 37 1012.0
20260504171009 67 206 4.3 11.3 0.00 0.00 0.00 38 1011.9
20260504170504 67 268 7.8 13.0 0.00 0.00 0.00 38 1012.0
20260504160425 65 179 4.3 7.8 0.00 0.00 0.00 40 1012.6
20260504150848 64 110 3.5 9.6 0.00 0.00 0.00 40 1013.2
20260504150345 64 212 6.1 13.0 0.00 0.00 0.00 43 1013.4
20260504141315 62 208 4.3 7.0 0.00 0.00 0.00 44 1013.7
20260504140812 62 212 4.3 9.6 0.00 0.00 0.00 42 1013.5
20260504140307 62 259 4.3 7.8 0.00 0.00 0.00 42 1013.7
20260504130736 60 283 4.3 7.0 0.00 0.00 0.00 42 1014.4
20260504130232 59 234 2.6 4.3 0.00 0.00 0.00 47 1014.4
20260504120156 53 127 2.6 4.3 0.00 0.00 0.00 58 1014.6
20260504110623 36 70 0.0 0.0 0.00 0.00 0.00 98 1014.7
20260504110119 35 69 0.0 0.0 0.00 0.00 0.00 98 1014.7
20260504100545 33 69 0.0 0.0 0.00 0.00 0.00 97 1014.3
20260504081939 33 69 0.0 0.0 0.00 0.00 0.00 95 1013.6
20260504081436 34 69 0.0 0.0 0.00 0.00 0.00 95 1013.6
20260504080931 34 69 0.0 0.0 0.00 0.00 0.00 95 1013.6
20260504080428 34 69 0.0 0.0 0.00 0.00 0.00 95 1013.6
20260504070356 35 70 0.0 0.0 0.00 0.00 0.00 94 1013.3
20260504050743 36 70 0.0 0.0 0.00 0.00 0.00 89 1013.1
20260504050241 36 71 0.0 0.0 0.00 0.00 0.00 89 1013.2
20260504045738 37 71 0.0 0.0 0.00 0.00 0.00 89 1013.2
20260504045233 37 71 0.0 0.0 0.00 0.00 0.00 88 1013.3
20260504044731 37 71 0.0 0.0 0.00 0.00 0.00 88 1013.1
20260504044228 37 71 0.0 0.0 0.00 0.00 0.00 87 1013.2
20260504043725 37 71 0.0 0.0 0.00 0.00 0.00 87 1013.3
20260504043222 37 70 0.0 0.0 0.00 0.00 0.00 87 1013.1
20260504042719 37 71 0.0 0.0 0.00 0.00 0.00 87 1013.2
20260504042216 38 71 0.0 0.0 0.00 0.00 0.00 86 1013.3
20260504041712 38 71 0.0 0.0 0.00 0.00 0.00 86 1013.2
20260504041207 38 71 0.0 0.0 0.00 0.00 0.00 86 1013.0
20260504040704 38 71 0.0 0.0 0.00 0.00 0.00 86 1012.9
20260504040202 38 71 0.0 0.0 0.00 0.00 0.00 86 1013.0
20260504035658 38 71 0.0 0.0 0.00 0.00 0.00 86 1012.9
20260504035155 38 71 0.0 0.0 0.00 0.00 0.00 85 1012.9
20260504034652 38 71 0.0 0.0 0.00 0.00 0.00 85 1013.1
20260504034149 39 71 0.0 0.0 0.00 0.00 0.00 85 1012.9
20260504033647 39 71 0.0 0.0 0.00 0.00 0.00 84 1012.9
20260504033144 39 71 0.0 0.0 0.00 0.00 0.00 84 1012.9
20260504032641 39 71 0.0 0.0 0.00 0.00 0.00 84 1013.0
20260504032138 39 71 0.0 0.9 0.00 0.00 0.00 84 1012.7
20260504031635 40 75 0.0 0.0 0.00 0.00 0.00 85 1012.9
20260504031131 39 76 0.0 0.0 0.00 0.00 0.00 84 1012.7
20260504030628 39 76 0.0 0.0 0.00 0.00 0.00 83 1012.9
20260504030125 40 76 0.0 0.0 0.00 0.00 0.00 83 1012.7
20260504025622 40 76 0.0 0.0 0.00 0.00 0.00 83 1012.8
20260504025119 40 76 0.0 0.0 0.00 0.00 0.00 83 1012.8
20260504024616 40 76 0.0 0.0 0.00 0.00 0.00 82 1012.9
20260504024112 41 76 0.0 0.0 0.00 0.00 0.00 82 1013.0
20260504023609 41 76 0.0 0.0 0.00 0.00 0.00 81 1013.0
20260504023105 41 76 0.0 0.0 0.00 0.00 0.00 80 1013.0
20260504022601 41 76 0.0 0.0 0.00 0.00 0.00 79 1012.7
20260504022057 41 76 0.0 0.0 0.00 0.00 0.00 78 1012.9
20260504021555 41 76 0.0 0.0 0.00 0.00 0.00 77 1012.8
20260504021052 42 76 0.0 0.0 0.00 0.00 0.00 75 1013.0
20260504020549 42 76 0.0 0.0 0.00 0.00 0.00 74 1012.8
20260504020045 43 76 0.0 0.0 0.00 0.00 0.00 74 1012.9
20260504015542 43 76 0.0 0.0 0.00 0.00 0.00 73 1012.7
20260504015038 43 76 0.0 0.0 0.00 0.00 0.00 73 1012.8
20260504014534 43 76 0.0 0.0 0.00 0.00 0.00 72 1012.7
20260504014031 44 76 0.0 0.0 0.00 0.00 0.00 71 1012.8
20260504013529 44 76 0.0 0.0 0.00 0.00 0.00 69 1012.7
20260504013026 45 76 0.0 0.0 0.00 0.00 0.00 69 1012.8
20260504012524 45 76 0.0 0.0 0.00 0.00 0.00 67 1012.6
20260504012021 45 76 0.0 0.0 0.00 0.00 0.00 67 1012.5
20260504011517 46 76 0.0 0.0 0.00 0.00 0.00 65 1012.3
20260504011014 46 76 0.0 0.0 0.00 0.00 0.00 63 1012.3
20260504010509 47 76 0.0 0.0 0.00 0.00 0.00 61 1012.2
20260504010005 47 76 0.0 0.0 0.00 0.00 0.00 60 1012.2
20260504005502 47 76 0.0 0.0 0.00 0.00 0.00 59 1012.1
20260504005000 47 76 0.0 0.0 0.00 0.00 0.00 58 1012.0
20260504004457 47 76 0.0 0.0 0.00 0.00 0.00 58 1011.9
20260504003954 48 76 0.0 0.0 0.00 0.00 0.00 58 1011.9
20260504003450 48 76 0.0 0.0 0.00 0.00 0.00 57 1011.7
20260504002947 48 76 0.0 0.0 0.00 0.00 0.00 55 1011.7
20260504002444 49 76 0.0 0.0 0.00 0.00 0.00 54 1011.5
20260504001942 49 76 0.0 0.0 0.00 0.00 0.00 52 1011.5
20260504001439 49 76 0.0 0.0 0.00 0.00 0.00 51 1011.6
20260504000936 49 76 0.0 0.9 0.00 0.00 0.00 48 1011.5
20260504000433 50 76 0.0 0.0 0.00 0.00 0.00 48 1011.4
20260503235930 50 76 0.0 0.0 0.00 0.00 0.00 45 1011.2
20260503235428 51 76 0.0 0.0 0.00 0.00 0.00 45 1011.3
20260503234925 51 76 0.0 0.9 0.00 0.00 0.00 44 1011.2
20260503234422 52 76 0.0 0.0 0.00 0.00 0.00 42 1011.3
20260503233920 53 76 0.0 0.9 0.00 0.00 0.00 40 1011.1
20260503233416 54 76 0.9 0.9 0.00 0.00 0.00 41 1011.0
20260503232913 55 59 0.0 0.9 0.00 0.00 0.00 36 1011.0
20260503232410 54 74 0.0 0.0 0.00 0.00 0.00 37 1011.1
20260503231908 55 74 0.0 0.9 0.00 0.00 0.00 35 1010.9
20260503231405 56 97 0.0 1.7 0.00 0.00 0.00 33 1010.9
20260503230901 56 76 0.0 1.7 0.00 0.00 0.00 36 1010.9
20260503230358 56 76 0.0 0.9 0.00 0.00 0.00 34 1010.9
20260503225855 56 300 3.5 4.3 0.00 0.00 0.00 32 1010.8
20260503225351 56 40 1.7 4.3 0.00 0.00 0.00 33 1010.6
20260503224848 56 354 1.7 2.6 0.00 0.00 0.00 34 1010.6
20260503224345 57 80 0.9 0.9 0.00 0.00 0.00 34 1010.7
20260503223843 57 31 0.9 1.7 0.00 0.00 0.00 33 1010.6
20260503223340 57 71 1.7 2.6 0.00 0.00 0.00 32 1010.8
20260503222836 57 2 3.5 6.1 0.00 0.00 0.00 32 1010.6
20260503222335 57 23 3.5 6.1 0.00 0.00 0.00 33 1010.5
20260503221832 58 69 0.9 1.7 0.00 0.00 0.00 34 1010.5
20260503221331 58 350 0.9 2.6 0.00 0.00 0.00 36 1010.4
20260503220826 58 73 0.9 1.7 0.00 0.00 0.00 34 1010.6
20260503220323 58 90 2.6 2.6 0.00 0.00 0.00 34 1010.6
20260503215820 58 47 0.9 2.6 0.00 0.00 0.00 36 1010.5
20260503215317 57 74 2.6 5.2 0.00 0.00 0.00 35 1010.5
20260503214815 57 11 3.5 6.1 0.00 0.00 0.00 34 1010.5
20260503214312 58 90 2.6 7.0 0.00 0.00 0.00 34 1010.7
20260503213809 58 113 0.9 7.0 0.00 0.00 0.00 34 1010.6
20260503213307 58 49 1.7 1.7 0.00 0.00 0.00 34 1010.4
20260503212803 57 42 4.3 7.0 0.00 0.00 0.00 33 1010.5
20260503212301 57 353 1.7 6.1 0.00 0.00 0.00 35 1010.5
20260503211759 56 320 4.3 7.8 0.00 0.00 0.00 36 1010.6
20260503211255 56 86 1.7 6.1 0.00 0.00 0.00 36 1010.6
20260503210755 56 75 0.9 2.6 0.00 0.00 0.00 37 1010.5
20260503210253 57 16 4.3 7.8 0.00 0.00 0.00 34 1010.7
20260503205748 58 322 1.7 4.3 0.00 0.00 0.00 33 1010.5
20260503205245 58 251 7.0 11.3 0.00 0.00 0.00 35 1010.5
20260503204741 58 325 4.3 13.0 0.00 0.00 0.00 34 1010.5
20260503204239 58 41 1.7 5.2 0.00 0.00 0.00 33 1010.7
20260503203736 58 51 1.7 5.2 0.00 0.00 0.00 34 1010.5
20260503203233 58 40 1.7 5.2 0.00 0.00 0.00 38 1010.5
20260503202730 58 87 3.5 6.1 0.00 0.00 0.00 35 1010.6
20260503202228 58 3 1.7 4.3 0.00 0.00 0.00 36 1010.6
20260503201726 56 248 6.1 9.6 0.00 0.00 0.00 35 1010.4
20260503201223 56 338 4.3 6.1 0.00 0.00 0.00 37 1010.4
20260503200719 55 333 2.6 7.0 0.00 0.00 0.00 37 1010.8
20260503200216 57 347 1.7 14.8 0.00 0.00 0.00 36 1010.8
20260503195713 57 314 1.7 4.3 0.00 0.00 0.00 39 1010.7
20260503195210 56 75 4.3 5.2 0.00 0.00 0.00 36 1010.5
20260503194707 56 297 0.9 8.7 0.00 0.00 0.00 37 1010.7
20260503194202 57 106 4.3 6.1 0.00 0.00 0.00 36 1010.7
20260503193659 56 327 3.5 7.8 0.00 0.00 0.00 37 1010.8
20260503193155 57 301 1.7 7.0 0.00 0.00 0.00 36 1010.7
20260503192651 55 285 3.5 7.0 0.00 0.00 0.00 36 1010.8
20260503192146 56 286 2.6 9.6 0.00 0.00 0.00 36 1010.6
20260503191643 57 58 1.7 13.0 0.00 0.00 0.00 35 1010.9
20260503191140 57 37 9.6 13.0 0.00 0.00 0.00 34 1010.6
20260503190637 57 357 9.6 12.2 0.00 0.00 0.00 34 1010.7
20260503190134 57 291 8.7 13.9 0.00 0.00 0.00 36 1010.6
20260503185631 57 148 0.9 7.8 0.00 0.00 0.00 38 1010.6
20260503185126 57 30 2.6 7.8 0.00 0.00 0.00 37 1010.5
20260503184621 56 341 2.6 6.1 0.00 0.00 0.00 37 1010.7
20260503184118 57 242 4.3 7.8 0.00 0.00 0.00 36 1010.7
20260503183615 56 12 2.6 7.0 0.00 0.00 0.00 36 1010.6
20260503183112 57 240 2.6 5.2 0.00 0.00 0.00 35 1010.8
20260503182610 57 90 0.9 1.7 0.00 0.00 0.00 41 1010.5
20260503182108 55 67 2.6 7.0 0.00 0.00 0.00 37 1010.7
20260503181605 56 294 6.1 7.8 0.00 0.00 0.00 34 1010.6
20260503181101 56 59 1.7 7.0 0.00 0.00 0.00 40 1010.4
20260503180559 55 66 4.3 6.1 0.00 0.00 0.00 36 1010.8
20260503180056 54 70 3.5 9.6 0.00 0.00 0.00 37 1010.6